| time (UTC) | temp F | wind direction | speed MPH | gust MPH | rain 1hr in | rain 24hr in | rain mn in | humidity % | barometer mb |
| 20260503194506 | 62 | 281 | 1.0 | 5.0 | 0.00 | 0.00 | 0.00 | 82 | 1017.8 |
| 20260503193004 | 62 | 244 | 2.0 | 6.0 | 0.00 | 0.00 | 0.00 | 81 | 1017.8 |
| 20260503191505 | 62 | 197 | 2.0 | 5.0 | 0.00 | 0.00 | 0.00 | 81 | 1017.8 |
| 20260503190012 | 62 | 186 | 2.0 | 6.0 | 0.00 | 0.00 | 0.00 | 81 | 1017.7 |
| 20260503183004 | 63 | 254 | 4.0 | 8.0 | 0.00 | 0.00 | 0.00 | 79 | 1017.6 |
| 20260503180016 | 64 | 243 | 4.0 | 11.0 | 0.00 | 0.00 | 0.00 | 75 | 1017.3 |
| 20260503174504 | 64 | 251 | 5.0 | 10.0 | 0.00 | 0.00 | 0.00 | 75 | 1017.3 |
| 20260503173004 | 65 | 265 | 5.0 | 11.0 | 0.00 | 0.00 | 0.00 | 75 | 1017.2 |
| 20260503081504 | 64 | 326 | 4.0 | 8.0 | 0.00 | 0.00 | 0.00 | 80 | 1019.5 |
| 20260503080110 | 63 | 324 | 3.0 | 7.0 | 0.00 | 0.00 | 0.00 | 78 | 1019.3 |
| 20260503071504 | 62 | 332 | 2.0 | 6.0 | 0.00 | 0.00 | 0.00 | 79 | 1019.7 |
| 20260503054504 | 59 | 0 | 0.0 | 0.0 | 0.00 | 0.00 | 0.00 | 77 | 1019.8 |
| 20260503053005 | 58 | 0 | 0.0 | 0.0 | 0.00 | 0.00 | 0.00 | 76 | 1019.8 |
| 20260503043006 | 53 | 111 | 1.0 | 2.0 | 0.00 | 0.00 | 0.00 | 82 | 1019.6 |
| 20260503040004 | 53 | 116 | 1.0 | 2.0 | 0.00 | 0.00 | 0.00 | 82 | 1019.5 |
| 20260503034504 | 53 | 106 | 1.0 | 2.0 | 0.00 | 0.00 | 0.00 | 81 | 1019.4 |
| 20260503031504 | 53 | 134 | 2.0 | 2.0 | 0.00 | 0.00 | 0.00 | 79 | 1019.3 |
| 20260503030005 | 53 | 131 | 2.0 | 6.0 | 0.00 | 0.00 | 0.00 | 79 | 1019.3 |
| 20260503024507 | 53 | 133 | 2.0 | 4.0 | 0.00 | 0.00 | 0.00 | 79 | 1019.4 |
| 20260503021504 | 54 | 90 | 2.0 | 4.0 | 0.00 | 0.00 | 0.00 | 79 | 1019.4 |
| 20260503014504 | 53 | 123 | 1.0 | 5.0 | 0.00 | 0.00 | 0.00 | 81 | 1019.5 |
| 20260503013004 | 53 | 101 | 0.0 | 1.0 | 0.00 | 0.00 | 0.00 | 82 | 1019.7 |
| 20260503011506 | 53 | 130 | 1.0 | 3.0 | 0.00 | 0.00 | 0.00 | 83 | 1019.9 |
| 20260503010006 | 53 | 121 | 0.0 | 2.0 | 0.00 | 0.00 | 0.00 | 83 | 1019.9 |
| 20260503004505 | 53 | 0 | 0.0 | 0.0 | 0.00 | 0.00 | 0.00 | 81 | 1020.0 |
| 20260503003005 | 53 | 0 | 0.0 | 0.0 | 0.00 | 0.00 | 0.00 | 81 | 1020.1 |
| 20260503001505 | 54 | 14 | 0.0 | 1.0 | 0.00 | 0.00 | 0.00 | 82 | 1020.2 |
| 20260503000004 | 55 | 15 | 0.0 | 1.0 | 0.00 | 0.00 | 0.00 | 81 | 1020.1 |
| 20260502234504 | 55 | 352 | 0.0 | 1.0 | 0.00 | 0.00 | 0.00 | 82 | 1020.2 |
| 20260502233004 | 56 | 99 | 0.0 | 1.0 | 0.00 | 0.00 | 0.00 | 82 | 1020.3 |
| 20260502231504 | 57 | 105 | 0.0 | 1.0 | 0.00 | 0.00 | 0.00 | 82 | 1020.4 |
| 20260502224504 | 59 | 155 | 0.0 | 2.0 | 0.00 | 0.00 | 0.00 | 81 | 1020.6 |
| 20260502223004 | 59 | 155 | 0.0 | 2.0 | 0.00 | 0.00 | 0.00 | 80 | 1020.7 |
| 20260502221505 | 59 | 155 | 1.0 | 3.0 | 0.00 | 0.00 | 0.00 | 80 | 1020.8 |
| 20260502220008 | 58 | 155 | 0.0 | 1.0 | 0.00 | 0.00 | 0.00 | 82 | 1020.7 |
| 20260502214504 | 58 | 149 | 0.0 | 1.0 | 0.00 | 0.00 | 0.00 | 79 | 1020.6 |
| 20260502213004 | 60 | 153 | 0.0 | 3.0 | 0.00 | 0.00 | 0.00 | 78 | 1020.6 |
| 20260502211505 | 60 | 156 | 0.0 | 2.0 | 0.00 | 0.00 | 0.00 | 76 | 1020.6 |
| 20260502210004 | 60 | 152 | 1.0 | 3.0 | 0.00 | 0.00 | 0.00 | 72 | 1020.6 |
| 20260502204504 | 59 | 156 | 0.0 | 2.0 | 0.00 | 0.00 | 0.00 | 71 | 1020.6 |
| 20260502203006 | 59 | 161 | 0.0 | 1.0 | 0.00 | 0.00 | 0.00 | 72 | 1020.6 |
| 20260502200004 | 60 | 0 | 0.0 | 0.0 | 0.00 | 0.00 | 0.00 | 61 | 1020.7 |